一网星座-0596星 (ONEWEB-0596 )

导读

ONEWEB-0596是英国OneWeb星座于2022年12月8日发射的低轨宽带通信卫星。OneWeb是全球第二大卫星互联网运营商,其第一代低轨星座由数百颗卫星组网,旨在为全球提供高速宽带服务,覆盖偏远地区、应急通信、海上和航空等场景。该卫星入轨后,助力OneWeb实现全球覆盖,为企业及政府客户提供低时延、高带宽的网络连接服务,推动全球互联基础设施建设。

Basic Information
目录编号:
54662
目录名称:
ONEWEB-0596
国际标识:
2022-166W
轨道中心:
EARTH
卫星名称:
一网星座-0596星
卫星全名:
一网星座-0596星 (ONEWEB-0596 )
卫星状态:
在轨 (已飞行1374 天)
发射日期:
2022-12-08 UTC
国别 :
英国 (GB)
星等 :
--
This satellite is enrolled in the Space Conjunction Data Service (SCDS) and the current flight risk assessment level is: No High Risk
Orbit Information
数据来源 国际轨道数据 AOE轨道数据
星历时间 2026-09-12T05:40:06+0800
8小时前
查看轨道信息
2026-09-10T07:00:00+0800
2天前
查看轨道信息
半长轴 7555.886km 7555.883km
偏心率 0.0002 0.0002279
轨道倾角 87.926° 87.926°
近地点辐角 82.152° 71.307°
升交点赤经 226.721° 227.106°
平近点角 277.984° 41.022°
近地点 1176.237km 1176.024km
远地点 1179.261km 1179.468km
周期 108.940分钟 108.940分钟
每日圈数 13.218273 13.218281
Detailed Information
平衡模式:
三轴稳定
覆盖范围:
全球
运营商:
一网卫星公司
运营商所在国:
英国
制造商(研发单位):
一网卫星公司
制造商所在国:
英国
使用方式:
暂无
Satellite Introduction
OneWeb卫星网络由648颗重约125公斤的微型卫星组成,运行在1200公里的轨道上。 每颗卫星都能够提供至少每秒8千兆位的吞吐量,以使用其高吞吐量的Ku频段有效载荷为家庭和移动平台提供互联网接入。该卫星仍在工作。
2D Orbit Map
3D Orbit Map
Orbit Altitude Analysis Chart
Orbit Inclination Analysis Chart
Orbit Comprehensive Analysis Chart
View Comprehensive Chart
Miss Distance Evolution Trend with All Objects
Collision Probability Evolution Trend with All Objects